Wind_Speed
39 43 44 41 37 41 40 46 47 48 43 33 33 29 31 32 34 37 34 35 36 38 38 35 38 45 31 29 34 47 46 39 34 30 27 26 25 25 30 27 27 26 23
31 32 36 41 44 44 45 45 48 45 40 40 42 42 41 41 40 42 38 36 39 37 39 40 37 36 32 25 29 35 50 44 37 33 31 27 23 21 28 28 27 27 26
35 35 35 35 33 35 42 46 49 52 51 49 47 50 50 48 47 48 47 44 41 43 44 43 43 40 36 31 37 30 35 47 41 38 33 28 22 22 27 28 26 28 28
34 31 32 31 31 33 36 36 39 41 42 44 48 50 51 54 53 50 49 47 48 50 50 48 47 44 41 39 38 33 29 23 25 37 34 31 28 27 34 32 29 28 28
39 38 37 38 40 42 42 44 46 44 44 47 45 46 46 52 57 55 56 55 53 53 53 52 49 49 46 44 44 38 37 35 33 38 39 37 32 29 38 37 34 31 28
44 45 47 48 49 50 51 54 54 50 48 47 49 50 50 50 51 57 62 59 60 59 58 55 51 50 52 50 47 46 43 42 41 38 37 38 40 38 32 43 39 37 35
49 50 52 55 57 57 57 56 52 52 53 52 50 49 51 53 54 56 55 58 64 64 60 63 59 56 54 53 54 50 49 46 46 45 43 37 33 33 41 47 46 44 37
54 55 55 55 56 56 55 54 51 47 47 50 50 50 48 52 55 58 60 59 59 61 69 72 69 65 62 59 56 57 54 53 52 52 50 45 41 41 44 43 50 44 40
51 49 47 46 45 42 40 41 43 43 42 42 45 45 46 48 50 56 59 62 63 63 63 66 70 75 72 72 66 63 60 57 56 55 55 54 49 47 52 52 46 46 42
45 44 43 42 41 42 42 41 42 43 43 44 46 48 48 47 47 47 55 59 61 65 67 65 67 68 73 77 74 69 68 64 60 62 59 58 57 55 56 53 53 44 41
41 41 41 41 40 39 41 43 44 45 46 47 48 49 51 53 53 51 49 53 61 62 64 68 67 68 68 72 79 76 75 72 70 67 66 64 61 61 60 60 54 52 48
37 37 38 38 40 43 44 46 48 51 53 55 57 59 60 60 58 59 58 55 55 62 64 64 67 69 66 66 70 77 79 78 77 74 72 69 67 65 64 64 63 59 57
37 38 40 43 45 47 49 51 54 56 58 62 65 66 67 68 69 69 68 67 63 61 64 67 67 68 72 70 65 64 71 77 79 79 77 75 72 70 68 68 68 66 64
37 39 41 43 45 47 51 55 57 60 64 68 71 73 74 76 78 79 81 81 77 73 67 68 71 71 70 69 73 70 65 66 72 79 82 82 78 77 75 71 71 70 69
39 41 45 46 50 52 56 60 64 67 71 75 78 79 80 83 86 88 90 90 92 89 82 74 74 73 75 73 71 71 71 69 68 69 74 79 79 80 78 76 72 75 71
43 47 50 53 56 59 63 67 71 75 78 81 84 86 89 91 92 93 94 94 95 96 96 89 80 79 78 78 77 74 72 72 71 72 70 71 75 78 80 80 78 75 77
48 52 55 57 61 65 69 73 77 81 83 88 91 93 95 95 94 92 90 90 92 91 97 97 93 84 81 81 80 81 78 75 75 75 75 74 72 72 74 79 81 79 79
53 57 60 63 67 71 75 79 82 86 90 93 95 93 87 83 79 77 76 75 76 78 83 91 89 91 84 85 83 81 82 81 80 78 76 76 76 75 74 73 73 78 79
58 61 65 68 71 75 79 82 86 90 94 93 87 80 76 77 77 78 77 75 73 72 74 78 79 81 81 84 84 84 81 81 82 82 80 76 75 75 75 76 74 73 74
61 64 68 71 74 78 82 86 90 94 94 84 75 74 76 79 81 83 83 82 80 77 74 74 73 74 77 74 81 84 85 83 79 82 82 79 77 76 76 75 76 75 74
63 66 70 73 77 81 85 89 93 95 88 77 76 79 77 76 75 76 78 79 81 84 80 77 72 72 72 74 74 76 83 84 84 82 82 81 79 78 77 77 77 75 75
65 68 72 75 79 84 88 92 95 91 81 79 80 77 78 75 72 70 70 72 73 75 78 81 77 72 69 71 72 71 76 83 86 84 84 82 81 79 78 77 77 77 76
66 69 73 77 82 86 90 93 93 86 80 81 80 82 77 74 72 69 66 66 65 65 68 72 77 75 69 68 71 72 74 77 81 83 86 83 83 81 80 78 77 76 77
67 70 75 79 83 88 91 92 89 82 80 79 81 79 76 66 56 53 52 52 55 58 57 63 69 71 71 69 69 70 72 74 77 82 85 85 84 82 82 82 80 79 78
67 71 76 80 85 89 91 90 84 79 79 77 79 76 65 52 45 41 39 36 36 41 49 53 59 62 67 68 68 68 68 70 73 76 80 84 83 84 84 83 83 83 83
68 72 77 81 86 89 89 85 81 79 78 77 75 68 49 43 38 34 33 29 23 25 37 44 50 53 58 61 63 66 64 66 68 71 73 78 81 84 84 83 83 83 85
Wind_Direction
285 284 285 281 278 279 276 278 275 269 264 265 264 267 268 270 265 268 266 271 269 265 267 270 256 258 273 256 285 262 243 230 237 236 243 244 252 253 226 229 223 227 227
306 299 302 292 286 283 283 278 278 271 268 273 272 275 280 278 278 276 275 269 266 270 269 270 267 266 278 275 275 255 247 232 231 232 237 241 249 233 222 229 225 226 228
307 305 305 304 309 302 278 276 278 280 279 280 276 272 270 271 271 274 275 274 273 271 273 268 272 272 273 267 270 259 241 239 245 232 235 235 240 225 221 229 229 227 225
302 303 305 308 311 312 308 309 303 301 294 285 279 277 276 272 268 267 267 269 269 267 269 270 268 268 269 264 263 270 252 253 236 242 232 233 237 234 225 226 225 226 227
298 291 294 298 299 299 301 303 300 296 293 288 284 282 279 274 270 268 265 263 264 264 263 262 263 264 262 259 257 255 249 243 234 254 230 234 233 231 228 226 225 228 225
298 293 290 293 295 295 295 298 297 291 286 285 281 278 277 280 275 269 263 264 265 264 261 257 259 260 260 258 254 251 248 249 251 249 248 240 235 230 225 229 231 233 231
296 295 295 295 296 295 294 294 293 290 288 286 282 281 277 272 272 273 274 268 263 260 259 256 257 259 254 257 256 250 246 246 247 250 247 243 243 239 235 235 231 231 231
297 296 294 294 294 297 299 300 301 297 292 287 284 282 280 280 275 271 270 269 269 264 256 256 259 256 255 255 254 251 246 242 240 241 246 243 236 233 242 241 227 232 229
303 303 304 304 303 303 303 302 301 301 301 298 293 288 283 280 276 276 273 270 267 266 263 259 256 253 255 252 252 251 247 244 242 240 239 242 238 237 238 242 249 224 228
304 303 303 301 300 299 300 301 300 300 298 297 295 293 290 284 277 272 275 274 270 267 266 264 258 255 252 250 248 247 246 246 245 245 241 239 240 237 238 244 245 240 231
303 302 303 304 305 306 306 306 305 304 302 299 296 293 291 289 284 277 269 270 275 272 267 264 262 258 255 251 250 249 246 246 244 243 245 242 238 239 239 243 241 244 242
307 308 308 307 306 306 306 306 305 304 303 303 300 297 293 289 285 283 279 270 264 268 270 267 264 260 257 254 250 247 246 245 244 241 241 244 242 238 238 239 241 241 239
311 311 310 309 307 307 306 307 307 305 304 303 301 298 294 291 288 284 280 276 271 264 263 265 262 261 259 256 253 250 246 243 243 241 241 242 241 239 236 237 237 237 238
309 308 309 310 311 312 311 310 307 304 302 300 297 294 292 288 285 283 280 278 273 267 261 260 261 259 256 256 255 252 249 246 242 241 240 241 241 240 237 238 237 236 235
310 314 315 315 313 312 311 310 308 306 305 303 300 295 291 287 284 281 278 275 273 269 263 256 253 255 256 252 249 248 249 247 244 241 239 239 239 238 237 236 239 237 236
318 318 318 317 316 314 314 313 310 309 307 304 301 297 293 289 284 279 275 272 269 267 264 260 251 248 249 251 249 246 244 243 244 244 241 238 238 237 238 237 237 237 235
320 321 319 318 317 315 315 313 312 311 309 307 304 301 296 290 283 278 274 271 269 265 262 258 256 246 244 246 248 247 243 242 241 240 240 239 238 237 236 236 236 237 236
317 318 319 319 318 317 317 316 316 314 312 310 307 303 296 291 287 284 279 275 271 268 265 259 255 253 244 240 242 245 246 241 240 239 238 237 235 236 237 236 235 234 234
315 316 319 319 319 318 318 318 318 317 316 313 308 302 296 291 288 284 279 275 271 267 265 262 256 253 251 244 238 239 242 244 242 239 237 237 237 235 235 236 235 234 234
315 318 320 319 319 320 321 321 321 321 319 313 308 303 297 292 287 282 276 272 268 264 262 260 257 253 249 245 242 237 237 239 240 242 238 235 236 236 235 236 236 235 232
316 318 320 321 321 322 324 324 324 323 319 315 312 308 303 298 292 285 280 273 266 261 258 256 254 252 248 245 241 238 237 236 237 238 240 238 235 234 234 235 236 236 236
318 320 322 323 324 325 326 326 327 324 320 320 317 313 308 303 296 288 280 275 270 262 256 252 250 249 247 245 243 237 236 236 234 236 237 238 237 235 235 233 234 235 234
320 322 324 326 327 328 328 329 328 325 325 325 322 318 314 308 301 292 283 274 268 264 258 251 246 244 243 244 242 239 234 234 234 235 236 236 238 237 235 235 234 232 232
323 325 327 328 329 330 330 330 329 328 328 328 327 324 319 314 307 301 293 282 269 262 258 252 246 241 240 238 240 239 236 234 232 232 233 234 237 236 237 236 235 235 234
325 328 329 330 331 332 332 332 330 330 331 332 333 330 323 323 323 318 313 301 283 265 256 250 245 240 236 236 237 238 236 236 234 231 232 232 235 236 236 235 237 236 235
328 330 331 332 333 334 334 333 331 332 334 335 339 334 331 332 335 336 333 329 312 276 256 249 245 238 237 234 234 235 236 236 236 234 231 232 233 235 236 236 236 237 238
Height
5815 5812 5810 5809 5806 5805 5805 5804 5803 5801 5801 5800 5799 5798 5798 5799 5800 5799 5799 5797 5797 5798 5797 5800 5800 5800 5800 5802 5800 5799 5803 5803 5806 5809 5812 5814 5814 5813 5815 5818 5820 5823 5825
5808 5805 5802 5799 5797 5796 5795 5795 5793 5792 5790 5790 5790 5789 5790 5790 5791 5791 5791 5791 5788 5788 5790 5790 5793 5793 5794 5794 5793 5791 5794 5793 5797 5798 5802 5803 5806 5805 5809 5813 5815 5818 5820
5801 5799 5797 5794 5791 5787 5786 5784 5783 5781 5780 5780 5780 5779 5779 5780 5781 5781 5782 5782 5781 5781 5780 5782 5782 5784 5787 5787 5782 5770 5784 5772 5786 5790 5795 5797 5801 5801 5804 5807 5809 5812 5815
5797 5793 5790 5787 5784 5780 5779 5776 5774 5771 5770 5770 5769 5768 5768 5767 5768 5769 5769 5770 5770 5771 5772 5771 5772 5773 5777 5779 5777 5776 5761 5781 5783 5778 5786 5789 5795 5794 5798 5800 5803 5806 5809
5789 5787 5784 5780 5776 5773 5771 5768 5766 5764 5761 5759 5757 5756 5754 5754 5754 5754 5756 5756 5757 5758 5760 5762 5762 5764 5768 5771 5770 5772 5774 5777 5777 5779 5782 5784 5786 5787 5792 5795 5797 5800 5802
5780 5777 5774 5771 5767 5764 5761 5758 5755 5752 5750 5748 5746 5744 5743 5741 5739 5739 5741 5742 5744 5745 5746 5748 5751 5753 5754 5757 5761 5762 5763 5766 5766 5768 5764 5776 5775 5775 5777 5783 5787 5791 5795
5772 5768 5763 5758 5754 5751 5749 5747 5744 5740 5737 5735 5735 5732 5730 5729 5726 5726 5725 5726 5728 5730 5730 5733 5735 5738 5742 5744 5747 5750 5752 5754 5756 5756 5762 5767 5767 5766 5771 5770 5776 5783 5787
5761 5757 5752 5747 5744 5739 5735 5732 5729 5728 5725 5723 5722 5720 5719 5714 5713 5711 5711 5711 5711 5712 5714 5716 5719 5722 5724 5728 5733 5737 5740 5743 5747 5750 5751 5755 5760 5763 5759 5761 5761 5774 5777
5749 5745 5741 5737 5732 5729 5726 5723 5719 5715 5713 5709 5706 5706 5706 5705 5702 5696 5695 5695 5695 5696 5696 5698 5700 5702 5706 5710 5714 5719 5724 5727 5731 5735 5740 5743 5747 5750 5751 5753 5744 5758 5767
5741 5736 5732 5727 5723 5719 5716 5713 5709 5706 5703 5700 5696 5691 5689 5689 5689 5691 5681 5678 5679 5679 5679 5679 5681 5682 5684 5689 5694 5699 5704 5710 5715 5718 5722 5730 5735 5739 5740 5744 5745 5735 5732
5731 5726 5722 5718 5714 5710 5706 5703 5699 5695 5692 5689 5685 5682 5677 5672 5669 5670 5675 5668 5660 5661 5661 5661 5661 5662 5664 5668 5673 5679 5684 5691 5696 5701 5706 5712 5720 5725 5729 5729 5737 5739 5747
5723 5719 5715 5710 5706 5702 5697 5693 5688 5684 5679 5674 5670 5665 5661 5658 5655 5650 5649 5653 5653 5643 5642 5642 5642 5643 5644 5648 5652 5657 5662 5669 5675 5680 5686 5694 5702 5709 5714 5719 5721 5726 5733
5714 5710 5706 5701 5697 5692 5687 5682 5676 5672 5666 5660 5654 5649 5643 5637 5632 5629 5629 5629 5630 5632 5628 5623 5622 5622 5624 5628 5631 5635 5639 5644 5651 5658 5665 5673 5681 5689 5696 5702 5709 5714 5719
5707 5703 5698 5693 5688 5682 5677 5671 5665 5658 5652 5645 5638 5631 5623 5617 5611 5605 5600 5597 5601 5605 5608 5607 5600 5601 5603 5606 5609 5615 5618 5623 5628 5635 5643 5651 5659 5667 5675 5683 5691 5697 5702
5699 5693 5688 5682 5677 5671 5665 5658 5650 5642 5634 5625 5616 5608 5601 5593 5584 5577 5572 5568 5564 5568 5577 5581 5582 5578 5579 5583 5588 5593 5598 5603 5608 5613 5620 5628 5637 5646 5654 5662 5670 5679 5686
5688 5683 5676 5670 5663 5656 5648 5640 5632 5622 5612 5602 5591 5581 5571 5561 5553 5545 5538 5534 5531 5529 5533 5542 5553 5555 5554 5557 5562 5569 5575 5581 5587 5593 5599 5605 5613 5622 5632 5641 5650 5658 5667
5677 5671 5664 5658 5650 5642 5633 5623 5612 5600 5587 5575 5561 5548 5535 5522 5513 5506 5500 5496 5493 5492 5492 5504 5510 5523 5530 5532 5535 5541 5548 5556 5563 5571 5578 5585 5592 5599 5608 5618 5628 5638 5647
5666 5659 5652 5643 5634 5624 5614 5602 5589 5574 5560 5544 5528 5512 5498 5486 5478 5472 5467 5465 5462 5460 5457 5463 5476 5482 5498 5504 5509 5513 5520 5531 5538 5546 5554 5562 5571 5578 5586 5596 5606 5615 5624
5654 5646 5637 5627 5617 5606 5595 5581 5566 5550 5531 5511 5493 5479 5469 5458 5451 5443 5438 5435 5434 5433 5431 5430 5441 5450 5460 5473 5483 5490 5496 5503 5513 5520 5530 5539 5548 5557 5565 5574 5585 5595 5603
5642 5632 5623 5612 5601 5588 5575 5559 5541 5522 5502 5483 5468 5454 5442 5430 5419 5411 5405 5402 5401 5402 5404 5404 5411 5420 5426 5442 5451 5465 5471 5478 5486 5494 5506 5516 5525 5535 5544 5553 5564 5574 5581
5629 5619 5609 5596 5583 5569 5552 5535 5516 5495 5474 5459 5445 5428 5412 5398 5386 5376 5366 5366 5364 5367 5373 5378 5385 5391 5401 5411 5423 5436 5445 5453 5461 5472 5481 5493 5504 5513 5522 5532 5541 5550 5559
5615 5604 5592 5579 5564 5548 5530 5510 5490 5469 5451 5434 5418 5401 5383 5367 5354 5344 5336 5330 5330 5332 5339 5347 5358 5366 5378 5385 5397 5410 5417 5426 5439 5451 5457 5469 5480 5491 5500 5511 5520 5529 5539
5600 5588 5575 5561 5545 5528 5509 5489 5468 5446 5429 5411 5391 5371 5353 5337 5322 5310 5305 5302 5303 5303 5308 5316 5327 5340 5353 5363 5372 5382 5391 5402 5417 5426 5431 5447 5457 5470 5480 5489 5499 5509 5517
5586 5574 5559 5544 5528 5510 5490 5469 5449 5428 5412 5393 5371 5347 5326 5309 5295 5284 5278 5277 5278 5280 5285 5289 5299 5316 5328 5339 5346 5359 5370 5379 5389 5401 5412 5425 5433 5448 5456 5469 5479 5487 5497
5573 5558 5544 5528 5511 5492 5471 5450 5430 5414 5398 5379 5356 5330 5308 5295 5282 5272 5265 5261 5260 5263 5264 5268 5277 5290 5304 5316 5327 5335 5350 5359 5371 5383 5391 5402 5413 5424 5434 5448 5457 5465 5475
5559 5544 5529 5512 5494 5475 5455 5434 5413 5398 5383 5366 5347 5320 5301 5287 5277 5268 5260 5254 5251 5249 5248 5253 5261 5273 5283 5297 5308 5319 5331 5340 5351 5361 5375 5384 5394 5400 5412 5423 5434 5444 5454